223  
ASUS41 KBOX 211604  
RWRBOX  
 
REGIONAL WEATHER ROUNDUP  
NATIONAL WEATHER SERVICE BOSTON/NORTON MA  
1200 PM EDT SAT MAY 21 2022  
 
NOTE: "FAIR" INDICATES FEW OR NO CLOUDS BELOW 12,000 FEET WITH NO  
SIGNIFICANT WEATHER AND/OR S TO VISIBILITY
.  
 
MAZALL-211700-  
EASTERN MASSACHUSETTS  
 
CITY SKY/WX TMP DP RH WIND PRES REMARKS
 
BOSTON PTSUNNY 62 59 90 SE5 30.04R  
BEVERLY CLOUDY 71 64 78 W5 30.01S  
LAWRENCE PTSUNNY 71 64 78 VRB5 30.04S  
BEDFORD CLOUDY 70 65 84 SW7 30.02R HAZE  
BLUE HILL NOT AVBL  
NORWOOD CLOUDY 71 66 84 W5 30.02R  
MARSHFIELD CLOUDY 64 61 88 VRB5 30.02S  
PLYMOUTH CLOUDY 73 67 81 VRB3 30.01S  
TAUNTON CLOUDY 72 66 81 CALM 30.02R  
NEW BEDFORD MOSUNNY 76 68 76 W6 30.01R  

 
 
MAZALL-211700-  
CAPE COD AND THE ISLANDS  
 
CITY SKY/WX TMP DP RH WIND PRES REMARKS
 
FALMOUTH MOSUNNY 72 66 83 SW3 30.02S  
HYANNIS PTSUNNY 67 62 84 SW3 30.01S  
CHATHAM FOG 62 60 93 VRB3 30.03S VSB 3/4  
PROVINCETOWN CLOUDY 68 66 93 SW7 30.03S FOG  
NANTUCKET CLOUDY 63 59 87 SW10 30.02S FOG  
MARTHAS VNYRD MOSUNNY 75 67 76 S7 30.02S  

 
 
MAZALL-211700-  
CENTRAL AND WESTERN MASSACHUSETTS  
 
CITY SKY/WX TMP DP RH WIND PRES REMARKS
 
WORCESTER MOSUNNY 74 66 76 W8 30.04F  
FITCHBURG PTSUNNY 73 64 73 VRB3 30.03S  
ORANGE CLOUDY 70 64 81 SW5 30.04S  
SPRINGFIELD PTSUNNY 71 65 82 VRB5 30.02F  
WESTFIELD CLOUDY 71 65 81 CALM 30.03S  
NORTH ADAMS SUNNY 87 68 52 NE6 29.98F HX 90  
PITTSFIELD SUNNY 80 67 64 CALM 30.01F  

 
 
RIZALL-211700-  
RHODE ISLAND  
 
CITY SKY/WX TMP DP RH WIND PRES REMARKS
 
PROVIDENCE PTSUNNY 76 68 76 VRB3 30.02S  
NEWPORT PTSUNNY 70 66 87 N7 30.02F  
BLOCK ISLAND SUNNY 68 63 84 VRB6 30.04R  
SMITHFIELD MOSUNNY 72 68 87 NW5 30.04S  
WESTERLY MOSUNNY 71 64 78 SW6 30.02S  

 
 
CTZALL-211700-  
CONNECTICUT  
 
CITY SKY/WX TMP DP RH WIND PRES REMARKS
 
BRADLEY INTL CLOUDY 71 66 84 S5 30.04R  
HARTFORD CLOUDY 72 66 81 SE5 30.04S  
BRIDGEPORT SUNNY 67 63 87 SW7 30.03F FOG  
DANBURY MOSUNNY 81 69 67 SW5 30.04F  
GROTON MOSUNNY 68 63 84 SW9 30.02S  
NEW HAVEN PTSUNNY 70 65 84 SW5 30.03F  
CHESTER FAIR 79 70 73 VRB5 30.05R  
MERIDEN MOSUNNY 77 67 71 VRB3 30.03F  
WILLIMANTIC MOSUNNY 74 67 78 VRB3 30.03S  
OXFORD MOSUNNY 76 69 79 W8 30.06S  

 
 
MEZ002-015-021-024-NHZ003-005-008-011-012-014-VTZ005-008-211700-  
NORTHERN NEW ENGLAND  
 
CITY SKY/WX TMP DP RH WIND PRES REMARKS
 
PORTLAND ME PTSUNNY 63 57 81 E8 30.03F  
BANGOR ME CLOUDY 58 56 93 S6 30.06R  
CONCORD NH PTSUNNY 67 59 75 S5 30.03R  
MANCHESTER NH PTSUNNY 72 61 68 W3 30.01S  
NASHUA NH CLOUDY 67 66 97 CALM 30.04R  
PORTSMOUTH NH CLOUDY 69 61 74 W5 30.03R  
JAFFREY NH PTSUNNY 72 65 78 S7 30.05S  
KEENE NH CLOUDY 71 65 81 SW6 30.02F  
BURLINGTON VT MOSUNNY 81 67 62 S15G23 29.89F  
MT. WASHINGTON FOG 57 57 100 W23 N/A VSB 0  

 
 
NYZ052-076-211700-  
EASTERN NEW YORK  
 
CITY SKY/WX TMP DP RH WIND PRES REMARKS
 
ALBANY MOSUNNY 79 67 66 SE10 29.97F  
NEW YORK CITY MOSUNNY 81 66 60 NW5 30.01F  

 
 
ANZALL-211700-  
MARINE OBSERVATIONS  
 
STATION/POSITION TIME TEMP WIND PRES VSBY WAVE
 
AIR SEA DIR/SP/G HT/PER  
(UTC) (F) (DEG/KT/KT) (MB) (MI) (FT/S)  
BOSTON BUOY 1540 52 10/ 2/ 2 1017.4R  
BUZZARDS BAY 1500 56 270/ 6/ 7 1016.9R  
NANTUCKET SOUND 1540 57 54 200/ 6/ 6 1016.7R  
MASS BAY-STELLWA NOT AVBL  
ISLE OF SHOALS 1500 54 40/ 7/ 8 1016.2R  
S OF BLOCK IS 1526 54 N/A 4/ 5  

 
   
.....................KEY......................
 
 
SKY/WX - SKY CONDITION/PRESENT WEATHER  
TMP - TEMPERATURE IN FAHRENHEIT  
DWPT - DEWPOINT IN FAHRENHEIT  
RH - RELATIVE HUMIDITY IN PERCENT  
WIND - DIRECTION AND SPEED IN MPH  
PRES - MEAN SEA LEVEL PRESSURE IN INCHES OF HG  
WCI - WIND CHILL INDEX  
VSB - VISIBILITY IN MILES  
HX - HEAT INDEX  
TC - TEMPERATURE IN CELSIUS  
VRB - VARIABLE WIND DIRECTION  
N/A - NOT AVAILABLE  
 
 
CLICK HERE TO GO TO PREVIOUS BULLETINS.

The Nexlab MA Page
The Nexlab RI Page
The Nexlab NH Page
The Nexlab CT Page Main Text Page